CES261 RJTT-ZSPD

Flight info

Callsign CES261
Flight time 2h 47m
Altitude 40000
Route NINOX Y28 ISAKY Y592 POTET A593 LAMEN/K0917F400 A593 AKARA/K0917S1220 A593 DUMET DUM91A
Aircraft A359/H-SDE2E3GHIJ3J4J5LM1ORWXY/LB1D1

Departure

Time 2026-04-30 06:43
Airport Tokyo Haneda International Airport (RJTT)

Arrival

Time 2026-04-30 09:30
Airport Shanghai Pudong International Airport (ZSPD)
Time Latitude Longitude Altitude Speed Heading
2026-04-30 06:05 35.54582 139.77017 29 ft 0 kts 240°
2026-04-30 06:28 35.54592 139.77037 29 ft 4 kts 240°
2026-04-30 06:28 35.54605 139.77065 27 ft 4 kts 239°
2026-04-30 06:29 35.54619 139.77094 28 ft 4 kts 239°
2026-04-30 06:29 35.54629 139.77116 27 ft 4 kts 228°
2026-04-30 06:29 35.54624 139.77121 25 ft 5 kts 172°
2026-04-30 06:29 35.54644 139.77112 27 ft 5 kts 150°
2026-04-30 06:30 35.54666 139.77096 27 ft 4 kts 150°
2026-04-30 06:30 35.54669 139.77094 26 ft 6 kts 150°
2026-04-30 06:35 35.54638 139.77116 27 ft 9 kts 149°
2026-04-30 06:35 35.54578 139.77167 27 ft 12 kts 133°
2026-04-30 06:35 35.54579 139.77273 29 ft 16 kts 66°
2026-04-30 06:36 35.54646 139.77421 29 ft 24 kts 60°
2026-04-30 06:36 35.54743 139.77623 29 ft 29 kts 60°
2026-04-30 06:36 35.54845 139.77842 28 ft 30 kts 58°
2026-04-30 06:36 35.54793 139.78017 28 ft 25 kts 149°
2026-04-30 06:37 35.54640 139.78126 28 ft 27 kts 149°
2026-04-30 06:37 35.54472 139.78247 27 ft 30 kts 150°
2026-04-30 06:37 35.54289 139.78376 28 ft 31 kts 150°
2026-04-30 06:37 35.54186 139.78542 28 ft 24 kts 65°
2026-04-30 06:38 35.54265 139.78717 34 ft 22 kts 59°
2026-04-30 06:38 35.54342 139.78877 40 ft 21 kts 59°
2026-04-30 06:38 35.54410 139.79022 45 ft 19 kts 60°
2026-04-30 06:38 35.54483 139.79175 42 ft 22 kts 58°
2026-04-30 06:39 35.54569 139.79354 34 ft 27 kts 59°
2026-04-30 06:39 35.54668 139.79568 30 ft 27 kts 68°
2026-04-30 06:39 35.54605 139.79684 30 ft 15 kts 154°
2026-04-30 06:39 35.54507 139.79750 29 ft 18 kts 151°
2026-04-30 06:40 35.54389 139.79833 27 ft 21 kts 150°
2026-04-30 06:40 35.54257 139.79928 26 ft 23 kts 151°
2026-04-30 06:40 35.54154 139.80049 31 ft 19 kts 89°
2026-04-30 06:40 35.54204 139.80181 29 ft 10 kts 59°
2026-04-30 06:41 35.54207 139.80187 30 ft 0 kts 59°
2026-04-30 06:41 35.54208 139.80189 30 ft 1 kts 60°
2026-04-30 06:41 35.54226 139.80228 31 ft 10 kts 58°
2026-04-30 06:42 35.54277 139.80269 33 ft 10 kts 10°
2026-04-30 06:42 35.54344 139.80247 34 ft 10 kts 330°
2026-04-30 06:42 35.54351 139.80242 34 ft 0 kts 329°
2026-04-30 06:42 35.54493 139.80141 33 ft 61 kts 330°
2026-04-30 06:43 35.55073 139.79732 34 ft 129 kts 329°
2026-04-30 06:43 35.56014 139.79065 171 ft 174 kts 331°
2026-04-30 06:43 35.56993 139.78307 1162 ft 161 kts 329°
2026-04-30 06:43 35.58020 139.77830 1699 ft 163 kts 358°
2026-04-30 06:44 35.59120 139.78284 1890 ft 184 kts 41°
2026-04-30 06:44 35.59765 139.79722 2025 ft 209 kts 83°
2026-04-30 06:44 35.59367 139.81468 2384 ft 226 kts 126°
2026-04-30 06:44 35.58343 139.83005 2918 ft 238 kts 127°
2026-04-30 06:45 35.57549 139.84809 3600 ft 242 kts 114°
2026-04-30 06:45 35.56909 139.86757 4244 ft 249 kts 112°
2026-04-30 06:45 35.56260 139.88765 4881 ft 256 kts 112°
2026-04-30 06:45 35.55596 139.90795 5499 ft 262 kts 114°
2026-04-30 06:46 35.54785 139.92821 6106 ft 267 kts 127°
2026-04-30 06:46 35.53442 139.94348 6746 ft 264 kts 154°
2026-04-30 06:46 35.51696 139.94945 7400 ft 262 kts 180°
2026-04-30 06:46 35.49881 139.94710 8042 ft 264 kts 191°
2026-04-30 06:47 35.48106 139.94179 8645 ft 268 kts 199°
2026-04-30 06:47 35.46477 139.93047 9286 ft 273 kts 220°
2026-04-30 06:47 35.45318 139.91187 9916 ft 280 kts 243°
2026-04-30 06:47 35.44765 139.88846 10360 ft 293 kts 258°
2026-04-30 06:48 35.44442 139.86311 10640 ft 308 kts 260°
2026-04-30 06:48 35.44125 139.83684 10913 ft 322 kts 260°
2026-04-30 06:48 35.43775 139.80919 11187 ft 334 kts 260°
2026-04-30 06:48 35.43399 139.78053 11480 ft 345 kts 260°
2026-04-30 06:49 35.43015 139.75144 11967 ft 348 kts 261°
2026-04-30 06:49 35.42903 139.72177 12554 ft 349 kts 274°
2026-04-30 06:49 35.43423 139.69262 13186 ft 350 kts 285°
2026-04-30 06:49 35.44169 139.66425 13824 ft 349 kts 287°
2026-04-30 06:50 35.44919 139.63634 14343 ft 350 kts 287°
2026-04-30 06:50 35.45678 139.60780 14752 ft 353 kts 286°
2026-04-30 06:50 35.46436 139.57898 15178 ft 355 kts 286°
2026-04-30 06:50 35.47194 139.55001 15599 ft 357 kts 286°
2026-04-30 06:51 35.47942 139.52123 16012 ft 359 kts 285°
2026-04-30 06:51 35.48478 139.49130 16409 ft 360 kts 276°
2026-04-30 06:51 35.48664 139.46069 16821 ft 362 kts 272°
2026-04-30 06:51 35.48782 139.42974 17225 ft 364 kts 272°
2026-04-30 06:52 35.48899 139.39861 17623 ft 366 kts 272°
2026-04-30 06:52 35.49020 139.36736 18020 ft 368 kts 272°
2026-04-30 06:52 35.49144 139.33591 18410 ft 370 kts 272°
2026-04-30 06:52 35.49268 139.30467 18746 ft 372 kts 272°
2026-04-30 06:53 35.49392 139.27292 19073 ft 373 kts 272°
2026-04-30 06:53 35.49519 139.24105 19443 ft 373 kts 272°
2026-04-30 06:53 35.49644 139.20924 19793 ft 373 kts 272°
2026-04-30 06:53 35.49763 139.17735 20122 ft 375 kts 271°
2026-04-30 06:54 35.49764 139.14570 20491 ft 375 kts 269°
2026-04-30 06:54 35.49659 139.11371 20896 ft 375 kts 267°
2026-04-30 06:54 35.49500 139.08168 21259 ft 376 kts 266°
2026-04-30 06:54 35.49320 139.04972 21644 ft 376 kts 266°
2026-04-30 06:55 35.49139 139.01764 21996 ft 377 kts 266°
2026-04-30 06:55 35.48966 138.98595 22342 ft 377 kts 266°
2026-04-30 06:55 35.48794 138.95384 22718 ft 376 kts 267°
2026-04-30 06:55 35.48632 138.92180 23050 ft 377 kts 267°
2026-04-30 06:56 35.48472 138.88962 23331 ft 379 kts 267°
2026-04-30 06:56 35.48313 138.85728 23608 ft 380 kts 267°
2026-04-30 06:56 35.48153 138.82498 23998 ft 379 kts 267°
2026-04-30 06:56 35.47992 138.79268 24239 ft 380 kts 266°
2026-04-30 06:57 35.47830 138.76071 24461 ft 382 kts 266°
2026-04-30 06:57 35.47664 138.72813 24688 ft 383 kts 266°
2026-04-30 06:57 35.47495 138.69541 24924 ft 384 kts 266°
2026-04-30 06:57 35.47326 138.66259 25142 ft 386 kts 266°
2026-04-30 06:58 35.47155 138.62968 25375 ft 388 kts 265°
2026-04-30 06:58 35.46981 138.59664 25620 ft 389 kts 265°
2026-04-30 06:58 35.46807 138.56387 25841 ft 390 kts 265°
2026-04-30 06:58 35.46628 138.53044 26077 ft 392 kts 265°
2026-04-30 06:59 35.46448 138.49697 26322 ft 394 kts 265°
2026-04-30 06:59 35.46268 138.46335 26571 ft 395 kts 265°
2026-04-30 06:59 35.46087 138.42963 26795 ft 397 kts 264°
2026-04-30 06:59 35.45905 138.39615 27009 ft 399 kts 264°
2026-04-30 07:00 35.45714 138.36202 27163 ft 402 kts 264°
2026-04-30 07:00 35.45520 138.32776 27458 ft 401 kts 264°
2026-04-30 07:00 35.45336 138.29361 27675 ft 403 kts 264°
2026-04-30 07:00 35.45148 138.25912 27944 ft 404 kts 264°
2026-04-30 07:01 35.44962 138.22508 28207 ft 406 kts 264°
2026-04-30 07:01 35.44770 138.19038 28438 ft 409 kts 263°
2026-04-30 07:01 35.44580 138.15554 28750 ft 409 kts 263°
2026-04-30 07:01 35.44396 138.12071 29035 ft 410 kts 263°
2026-04-30 07:02 35.44200 138.08570 29295 ft 413 kts 263°
2026-04-30 07:02 35.43997 138.05044 29532 ft 415 kts 263°
2026-04-30 07:02 35.43789 138.01498 29769 ft 418 kts 262°
2026-04-30 07:02 35.43582 137.97976 30007 ft 420 kts 262°
2026-04-30 07:03 35.43365 137.94398 30263 ft 421 kts 262°
2026-04-30 07:03 35.43150 137.90801 30506 ft 423 kts 262°
2026-04-30 07:03 35.42940 137.87201 30825 ft 423 kts 262°
2026-04-30 07:03 35.42731 137.83607 31153 ft 422 kts 262°
2026-04-30 07:04 35.42525 137.80062 31502 ft 422 kts 262°
2026-04-30 07:04 35.42311 137.76482 31809 ft 421 kts 262°
2026-04-30 07:04 35.42065 137.72900 32054 ft 421 kts 261°
2026-04-30 07:04 35.41794 137.69316 32303 ft 421 kts 261°
2026-04-30 07:05 35.41236 137.62213 32828 ft 421 kts 261°
2026-04-30 07:05 35.40948 137.58641 33238 ft 417 kts 259°
2026-04-30 07:05 35.40460 137.55178 33784 ft 409 kts 254°
2026-04-30 07:06 35.39797 137.51803 34350 ft 403 kts 253°
2026-04-30 07:06 35.39104 137.48487 34760 ft 400 kts 253°
2026-04-30 07:06 35.38402 137.45241 35061 ft 399 kts 252°
2026-04-30 07:06 35.37680 137.41959 35377 ft 398 kts 252°
2026-04-30 07:07 35.36955 137.38679 35709 ft 397 kts 252°
2026-04-30 07:07 35.36237 137.35426 36047 ft 396 kts 252°
2026-04-30 07:07 35.35529 137.32214 36399 ft 394 kts 252°
2026-04-30 07:07 35.34816 137.28969 36747 ft 393 kts 252°
2026-04-30 07:08 35.34108 137.25744 37096 ft 392 kts 252°
2026-04-30 07:08 35.33401 137.22525 37451 ft 390 kts 252°
2026-04-30 07:08 35.32698 137.19331 37825 ft 388 kts 252°
2026-04-30 07:08 35.31997 137.16148 38185 ft 386 kts 252°
2026-04-30 07:09 35.31306 137.13017 38543 ft 385 kts 252°
2026-04-30 07:09 35.30610 137.09868 38842 ft 383 kts 252°
2026-04-30 07:09 35.29911 137.06715 39069 ft 383 kts 252°
2026-04-30 07:09 35.29216 137.03567 39281 ft 383 kts 252°
2026-04-30 07:10 35.28519 137.00426 39509 ft 382 kts 252°
2026-04-30 07:10 35.27820 136.97284 39718 ft 382 kts 252°
2026-04-30 07:10 35.27119 136.94140 39920 ft 383 kts 252°
2026-04-30 07:10 35.26427 136.91037 40093 ft 383 kts 252°
2026-04-30 07:11 35.25022 136.84732 40140 ft 383 kts 252°
2026-04-30 07:11 35.23618 136.78487 40135 ft 382 kts 252°
2026-04-30 07:12 35.22206 136.72220 40134 ft 382 kts 252°
2026-04-30 07:12 35.20790 136.65944 40130 ft 382 kts 252°
2026-04-30 07:13 35.19382 136.59717 40132 ft 381 kts 252°
2026-04-30 07:13 35.17963 136.53458 40128 ft 382 kts 252°
2026-04-30 07:14 35.16549 136.47240 40118 ft 382 kts 252°
2026-04-30 07:14 35.15124 136.40981 40118 ft 382 kts 252°
2026-04-30 07:15 35.13696 136.34724 40113 ft 382 kts 252°
2026-04-30 07:15 35.12271 136.28510 40112 ft 382 kts 252°
2026-04-30 07:16 35.10838 136.22265 40093 ft 382 kts 252°
2026-04-30 07:16 35.09416 136.16020 40098 ft 382 kts 252°
2026-04-30 07:17 35.08001 136.09812 40095 ft 382 kts 252°
2026-04-30 07:18 35.05858 136.00443 40085 ft 382 kts 252°
2026-04-30 07:18 35.04425 135.94241 40087 ft 382 kts 251°
2026-04-30 07:19 35.02968 135.87998 40085 ft 382 kts 251°
2026-04-30 07:19 35.01513 135.81761 40079 ft 383 kts 251°
2026-04-30 07:20 35.00263 135.75440 40072 ft 384 kts 254°
2026-04-30 07:20 34.99161 135.69098 40047 ft 384 kts 254°
2026-04-30 07:21 34.98026 135.62742 40048 ft 384 kts 254°
2026-04-30 07:21 34.96852 135.56391 40042 ft 384 kts 253°
2026-04-30 07:22 34.95074 135.46909 40028 ft 385 kts 253°
2026-04-30 07:22 34.93879 135.40553 40027 ft 385 kts 253°
2026-04-30 07:23 34.92675 135.34180 40031 ft 385 kts 253°
2026-04-30 07:23 34.91446 135.27881 40029 ft 385 kts 253°
2026-04-30 07:24 34.90193 135.21531 40029 ft 385 kts 253°
2026-04-30 07:24 34.88948 135.15220 40032 ft 385 kts 253°
2026-04-30 07:25 34.87695 135.08872 40037 ft 385 kts 253°
2026-04-30 07:25 34.86442 135.02537 40040 ft 385 kts 253°
2026-04-30 07:26 34.85205 134.96225 40033 ft 385 kts 253°
2026-04-30 07:26 34.84021 134.89867 40037 ft 385 kts 253°
2026-04-30 07:27 34.82842 134.83504 40024 ft 385 kts 253°
2026-04-30 07:27 34.81658 134.77180 40044 ft 386 kts 253°
2026-04-30 07:28 34.80459 134.70825 40030 ft 386 kts 253°
2026-04-30 07:28 34.79254 134.64459 40029 ft 386 kts 253°
2026-04-30 07:29 34.78031 134.58098 40028 ft 386 kts 253°
2026-04-30 07:29 34.76809 134.51796 40023 ft 386 kts 253°
2026-04-30 07:30 34.74960 134.42277 40023 ft 386 kts 253°
2026-04-30 07:31 34.73751 134.35954 40028 ft 386 kts 253°
2026-04-30 07:31 34.72537 134.29573 40022 ft 386 kts 253°
2026-04-30 07:32 34.71317 134.23199 40017 ft 387 kts 253°
2026-04-30 07:32 34.70099 134.16873 40022 ft 387 kts 253°
2026-04-30 07:33 34.68873 134.10496 40015 ft 387 kts 253°
2026-04-30 07:33 34.67651 134.04157 40020 ft 387 kts 253°
2026-04-30 07:34 34.66037 133.97937 40017 ft 385 kts 248°
2026-04-30 07:34 34.64185 133.91841 40019 ft 384 kts 247°
2026-04-30 07:35 34.62312 133.85807 40020 ft 384 kts 247°
2026-04-30 07:35 34.60425 133.79731 40015 ft 384 kts 247°
2026-04-30 07:36 34.58541 133.73657 40015 ft 384 kts 247°
2026-04-30 07:36 34.56672 133.67633 40010 ft 384 kts 247°
2026-04-30 07:37 34.54788 133.61576 40004 ft 384 kts 247°
2026-04-30 07:37 34.52853 133.55532 39998 ft 383 kts 246°
2026-04-30 07:38 34.50871 133.49573 39995 ft 383 kts 246°
2026-04-30 07:38 34.48879 133.43586 39985 ft 383 kts 246°
2026-04-30 07:39 34.46907 133.37626 39985 ft 383 kts 246°
2026-04-30 07:39 34.44989 133.31603 39982 ft 383 kts 247°
2026-04-30 07:40 34.43123 133.25541 39976 ft 383 kts 247°
2026-04-30 07:40 34.41258 133.19535 39976 ft 383 kts 246°
2026-04-30 07:41 34.39360 133.13500 39971 ft 383 kts 246°
2026-04-30 07:41 34.37438 133.07480 39973 ft 383 kts 246°
2026-04-30 07:42 34.35525 133.01499 39968 ft 383 kts 246°
2026-04-30 07:42 34.33604 132.95493 39966 ft 383 kts 246°
2026-04-30 07:43 34.31678 132.89481 39966 ft 383 kts 246°
2026-04-30 07:43 34.29775 132.83508 39968 ft 383 kts 246°
2026-04-30 07:44 34.27885 132.77494 39967 ft 382 kts 246°
2026-04-30 07:44 34.25991 132.71481 39972 ft 382 kts 246°
2026-04-30 07:45 34.24105 132.65520 39972 ft 383 kts 246°
2026-04-30 07:45 34.22202 132.59522 39955 ft 382 kts 246°
2026-04-30 07:46 34.20294 132.53537 39963 ft 382 kts 246°
2026-04-30 07:46 34.18403 132.47577 39958 ft 382 kts 246°
2026-04-30 07:47 34.16507 132.41581 39955 ft 381 kts 246°
2026-04-30 07:47 34.14620 132.35632 39961 ft 382 kts 246°
2026-04-30 07:48 34.12712 132.29640 39965 ft 382 kts 246°
2026-04-30 07:48 34.10799 132.23644 39963 ft 382 kts 246°
2026-04-30 07:49 34.08897 132.17695 39962 ft 382 kts 246°
2026-04-30 07:49 34.07256 132.11579 39959 ft 385 kts 250°
2026-04-30 07:50 34.05846 132.05349 39959 ft 385 kts 251°
2026-04-30 07:50 34.04474 131.99138 39952 ft 385 kts 251°
2026-04-30 07:51 34.03089 131.92886 39945 ft 385 kts 251°
2026-04-30 07:51 34.01696 131.86648 39938 ft 385 kts 251°
2026-04-30 07:52 34.00308 131.80454 39933 ft 385 kts 251°
2026-04-30 07:52 33.98906 131.74211 39934 ft 385 kts 251°
2026-04-30 07:53 33.97501 131.67977 39930 ft 386 kts 251°
2026-04-30 07:53 33.96100 131.61788 39920 ft 385 kts 251°
2026-04-30 07:54 33.94686 131.55548 39915 ft 386 kts 251°
2026-04-30 07:54 33.93279 131.49349 39911 ft 386 kts 251°
2026-04-30 07:55 33.91858 131.43105 39911 ft 387 kts 251°
2026-04-30 07:55 33.90432 131.36855 39907 ft 386 kts 251°
2026-04-30 07:56 33.89015 131.30666 39914 ft 386 kts 251°
2026-04-30 07:56 33.87823 131.25470 39915 ft 387 kts 251°
2026-04-30 07:57 33.86150 131.18171 39917 ft 387 kts 251°
2026-04-30 07:57 33.84721 131.11976 39915 ft 386 kts 251°
2026-04-30 07:58 33.83279 131.05747 39916 ft 386 kts 251°
2026-04-30 07:58 33.81845 130.99558 39914 ft 386 kts 251°
2026-04-30 07:59 33.80401 130.93341 39914 ft 386 kts 251°
2026-04-30 07:59 33.79200 130.88178 39916 ft 386 kts 251°
2026-04-30 08:00 33.77025 130.78857 39917 ft 385 kts 251°
2026-04-30 08:00 33.75342 130.71672 39906 ft 385 kts 251°
2026-04-30 08:01 33.74133 130.66522 39899 ft 385 kts 250°
2026-04-30 08:01 33.72678 130.60340 39888 ft 385 kts 250°
2026-04-30 08:02 33.70487 130.51056 39880 ft 385 kts 250°
2026-04-30 08:03 33.67153 130.38928 39887 ft 381 kts 242°
2026-04-30 08:04 33.63759 130.32766 39890 ft 381 kts 234°
2026-04-30 08:04 33.61090 130.28546 39881 ft 382 kts 233°
2026-04-30 08:05 33.57843 130.23488 39888 ft 382 kts 233°
2026-04-30 08:05 33.54615 130.18436 39892 ft 382 kts 234°
2026-04-30 08:06 33.51419 130.13414 39890 ft 382 kts 234°
2026-04-30 08:06 33.48200 130.08353 39895 ft 382 kts 234°
2026-04-30 08:07 33.44970 130.03284 39888 ft 382 kts 234°
2026-04-30 08:07 33.41763 129.98259 39890 ft 382 kts 234°
2026-04-30 08:08 33.38528 129.93200 39897 ft 382 kts 234°
2026-04-30 08:08 33.35314 129.88178 39891 ft 382 kts 234°
2026-04-30 08:09 33.32078 129.83127 39891 ft 382 kts 234°
2026-04-30 08:09 33.28836 129.78077 39894 ft 383 kts 234°
2026-04-30 08:10 33.25611 129.73060 39885 ft 383 kts 234°
2026-04-30 08:10 33.22367 129.68000 39887 ft 383 kts 234°
2026-04-30 08:11 33.19703 129.62518 39892 ft 383 kts 244°
2026-04-30 08:11 33.17636 129.56701 39893 ft 383 kts 246°
2026-04-30 08:12 33.15641 129.50794 39896 ft 383 kts 246°
2026-04-30 08:12 33.13642 129.44886 39895 ft 383 kts 246°
2026-04-30 08:13 33.11644 129.39036 39895 ft 383 kts 245°
2026-04-30 08:13 33.09618 129.33140 39898 ft 383 kts 245°
2026-04-30 08:14 33.07607 129.27299 39897 ft 383 kts 245°
2026-04-30 08:14 33.05580 129.21421 39901 ft 383 kts 245°
2026-04-30 08:15 33.03555 129.15557 39904 ft 383 kts 245°
2026-04-30 08:15 33.01538 129.09726 39908 ft 382 kts 245°
2026-04-30 08:16 32.99507 129.03869 39911 ft 383 kts 245°
2026-04-30 08:16 32.97474 128.98012 39911 ft 382 kts 245°
2026-04-30 08:17 32.95439 128.92164 39906 ft 382 kts 245°
2026-04-30 08:17 32.93418 128.86363 39903 ft 382 kts 245°
2026-04-30 08:18 32.91379 128.80525 39905 ft 382 kts 245°
2026-04-30 08:18 32.89347 128.74714 39901 ft 382 kts 245°
2026-04-30 08:19 32.87302 128.68884 39906 ft 382 kts 245°
2026-04-30 08:19 32.85254 128.63049 39906 ft 382 kts 245°
2026-04-30 08:20 32.83218 128.57254 39911 ft 382 kts 245°
2026-04-30 08:20 32.81166 128.51428 39919 ft 382 kts 245°
2026-04-30 08:21 32.79111 128.45607 39924 ft 382 kts 245°
2026-04-30 08:21 32.77069 128.39829 39932 ft 381 kts 245°
2026-04-30 08:22 32.75012 128.34021 39938 ft 381 kts 245°
2026-04-30 08:22 32.72966 128.28253 39933 ft 381 kts 245°
2026-04-30 08:23 32.70906 128.22455 39935 ft 381 kts 245°
2026-04-30 08:23 32.68847 128.16669 39941 ft 380 kts 245°
2026-04-30 08:24 32.66796 128.10921 39941 ft 380 kts 245°
2026-04-30 08:24 32.64735 128.05153 39941 ft 379 kts 245°
2026-04-30 08:25 32.62674 127.99393 39941 ft 379 kts 245°
2026-04-30 08:25 32.60620 127.93663 39947 ft 379 kts 245°
2026-04-30 08:26 32.58552 127.87906 39948 ft 379 kts 245°
2026-04-30 08:26 32.56480 127.82145 39953 ft 379 kts 245°
2026-04-30 08:27 32.54406 127.76390 39954 ft 379 kts 245°
2026-04-30 08:27 32.52346 127.70683 39955 ft 379 kts 245°
2026-04-30 08:28 32.50269 127.64937 39960 ft 379 kts 245°
2026-04-30 08:28 32.48204 127.59235 39963 ft 379 kts 245°
2026-04-30 08:29 32.46127 127.53510 39962 ft 378 kts 245°
2026-04-30 08:29 32.44048 127.47791 39965 ft 378 kts 245°
2026-04-30 08:30 32.41968 127.42076 39967 ft 378 kts 245°
2026-04-30 08:30 32.39900 127.36405 39965 ft 377 kts 245°
2026-04-30 08:31 32.37817 127.30704 39970 ft 377 kts 244°
2026-04-30 08:31 32.35732 127.25005 39974 ft 377 kts 244°
2026-04-30 08:32 32.33646 127.19313 39975 ft 377 kts 244°
2026-04-30 08:32 32.31571 127.13663 39974 ft 377 kts 244°
2026-04-30 08:33 32.29478 127.07970 39978 ft 377 kts 244°
2026-04-30 08:33 32.27642 127.02154 39984 ft 379 kts 250°
2026-04-30 08:34 32.26268 126.96176 39985 ft 380 kts 251°
2026-04-30 08:34 32.24946 126.90122 39983 ft 380 kts 251°
2026-04-30 08:35 32.23627 126.84080 39988 ft 379 kts 251°
2026-04-30 08:35 32.22308 126.78092 39986 ft 379 kts 251°
2026-04-30 08:36 32.20973 126.72069 39990 ft 379 kts 251°
2026-04-30 08:36 32.19635 126.66049 39991 ft 379 kts 251°
2026-04-30 08:37 32.18321 126.60061 39992 ft 379 kts 251°
2026-04-30 08:37 32.17026 126.54021 39994 ft 379 kts 251°
2026-04-30 08:38 32.15725 126.47980 39994 ft 379 kts 251°
2026-04-30 08:38 32.14426 126.41984 39997 ft 379 kts 251°
2026-04-30 08:39 32.13113 126.35949 40002 ft 379 kts 251°
2026-04-30 08:39 32.11806 126.29961 40002 ft 379 kts 251°
2026-04-30 08:40 32.10490 126.23946 40006 ft 379 kts 251°
2026-04-30 08:40 32.09171 126.17926 40010 ft 378 kts 251°
2026-04-30 08:41 32.07859 126.11956 40012 ft 378 kts 251°
2026-04-30 08:41 32.06534 126.05944 40012 ft 378 kts 251°
2026-04-30 08:42 32.05240 125.99968 40011 ft 379 kts 251°
2026-04-30 08:42 32.03954 125.93946 40015 ft 378 kts 251°
2026-04-30 08:43 32.02664 125.87930 40021 ft 378 kts 251°
2026-04-30 08:43 32.01377 125.81958 40026 ft 378 kts 251°
2026-04-30 08:44 32.00074 125.75956 40015 ft 378 kts 251°
2026-04-30 08:44 31.98743 125.69950 40022 ft 378 kts 251°
2026-04-30 08:45 31.97414 125.63988 40022 ft 378 kts 251°
2026-04-30 08:45 31.96078 125.57991 40023 ft 378 kts 251°
2026-04-30 08:46 31.94741 125.52001 40033 ft 378 kts 251°
2026-04-30 08:46 31.93410 125.46048 40030 ft 378 kts 251°
2026-04-30 08:47 31.92066 125.40052 40034 ft 378 kts 251°
2026-04-30 08:47 31.90721 125.34071 40034 ft 378 kts 251°
2026-04-30 08:48 31.89383 125.28131 40033 ft 378 kts 251°
2026-04-30 08:48 31.88033 125.22149 40036 ft 378 kts 251°
2026-04-30 08:49 31.86679 125.16169 40039 ft 378 kts 251°
2026-04-30 08:49 31.85331 125.10229 40042 ft 378 kts 251°
2026-04-30 08:50 31.83972 125.04251 40042 ft 378 kts 251°
2026-04-30 08:50 31.82611 124.98262 40044 ft 379 kts 251°
2026-04-30 08:51 31.81308 124.92257 40047 ft 379 kts 252°
2026-04-30 08:51 31.80028 124.86276 40044 ft 379 kts 252°
2026-04-30 08:52 31.78733 124.80270 40050 ft 379 kts 252°
2026-04-30 08:52 31.77424 124.74252 40048 ft 380 kts 252°
2026-04-30 08:53 31.76120 124.68274 40051 ft 380 kts 252°
2026-04-30 08:53 31.74803 124.62252 40049 ft 380 kts 252°
2026-04-30 08:54 31.73492 124.56272 40053 ft 380 kts 252°
2026-04-30 08:54 31.72169 124.50248 40056 ft 381 kts 252°
2026-04-30 08:55 31.70840 124.44218 40058 ft 381 kts 252°
2026-04-30 08:55 31.69518 124.38228 40062 ft 382 kts 252°
2026-04-30 08:56 31.68182 124.32190 40058 ft 382 kts 252°
2026-04-30 08:56 31.66842 124.26152 40060 ft 382 kts 252°
2026-04-30 08:57 31.65506 124.20141 40065 ft 383 kts 252°
2026-04-30 08:57 31.64159 124.14099 40066 ft 383 kts 252°
2026-04-30 08:58 31.62806 124.08045 40067 ft 383 kts 252°
2026-04-30 08:58 31.61458 124.02025 40065 ft 384 kts 252°
2026-04-30 08:59 31.60107 123.95963 40071 ft 384 kts 252°
2026-04-30 08:59 31.58784 123.89883 40080 ft 385 kts 252°
2026-04-30 09:00 31.57468 123.83832 40076 ft 385 kts 252°
2026-04-30 09:00 31.56133 123.77737 40071 ft 386 kts 252°
2026-04-30 09:01 31.54790 123.71635 40071 ft 386 kts 253°
2026-04-30 09:01 31.53445 123.65538 40079 ft 386 kts 252°
2026-04-30 09:02 31.51427 123.56416 40079 ft 387 kts 253°
2026-04-30 09:02 31.50073 123.50315 40080 ft 388 kts 253°
2026-04-30 09:03 31.48860 123.44192 40081 ft 388 kts 255°
2026-04-30 09:03 31.47714 123.37995 39878 ft 388 kts 255°
2026-04-30 09:04 31.47134 123.34909 39657 ft 387 kts 255°
2026-04-30 09:04 31.46555 123.31844 39322 ft 382 kts 254°
2026-04-30 09:04 31.45981 123.28818 38745 ft 382 kts 254°
2026-04-30 09:04 31.45409 123.25822 37974 ft 382 kts 254°
2026-04-30 09:05 31.44827 123.22785 37245 ft 382 kts 255°
2026-04-30 09:05 31.44244 123.19744 36530 ft 382 kts 255°
2026-04-30 09:05 31.43661 123.16703 35795 ft 383 kts 255°
2026-04-30 09:05 31.43076 123.13654 35038 ft 384 kts 256°
2026-04-30 09:06 31.42487 123.10593 34208 ft 387 kts 256°
2026-04-30 09:06 31.41894 123.07503 33261 ft 389 kts 256°
2026-04-30 09:06 31.41307 123.04447 32299 ft 391 kts 256°
2026-04-30 09:06 31.40708 123.01330 31351 ft 393 kts 256°
2026-04-30 09:07 31.40105 122.98202 30378 ft 395 kts 256°
2026-04-30 09:07 31.39495 122.95050 29246 ft 398 kts 256°
2026-04-30 09:07 31.38890 122.91933 28468 ft 394 kts 256°
2026-04-30 09:07 31.38285 122.88817 27758 ft 389 kts 256°
2026-04-30 09:08 31.37688 122.85746 27044 ft 384 kts 256°
2026-04-30 09:08 31.37096 122.82714 26330 ft 381 kts 256°
2026-04-30 09:08 31.36323 122.79766 25621 ft 377 kts 249°
2026-04-30 09:08 31.35067 122.77075 24926 ft 378 kts 238°
2026-04-30 09:09 31.33338 122.74798 24218 ft 383 kts 229°
2026-04-30 09:09 31.31309 122.72760 23369 ft 386 kts 226°
2026-04-30 09:09 31.29234 122.70769 22550 ft 383 kts 226°
2026-04-30 09:09 31.27188 122.68801 21811 ft 379 kts 226°
2026-04-30 09:10 31.25166 122.66846 21075 ft 376 kts 226°
2026-04-30 09:10 31.23157 122.64898 20333 ft 375 kts 226°
2026-04-30 09:10 31.21176 122.62975 19584 ft 374 kts 226°
2026-04-30 09:10 31.19179 122.61033 18816 ft 373 kts 225°
2026-04-30 09:11 31.17184 122.59096 17996 ft 373 kts 225°
2026-04-30 09:11 31.15190 122.57160 17168 ft 371 kts 225°
2026-04-30 09:11 31.13203 122.55234 16368 ft 370 kts 225°
2026-04-30 09:11 31.11230 122.53321 15571 ft 369 kts 225°
2026-04-30 09:12 31.09280 122.51431 14781 ft 369 kts 225°
2026-04-30 09:12 31.07310 122.49521 14006 ft 368 kts 225°
2026-04-30 09:12 31.05372 122.47649 13781 ft 353 kts 225°
2026-04-30 09:12 31.03531 122.45877 13633 ft 335 kts 225°
2026-04-30 09:13 31.01773 122.44183 13497 ft 319 kts 225°
2026-04-30 09:13 31.00160 122.42506 13345 ft 301 kts 232°
2026-04-30 09:13 30.98916 122.40643 13209 ft 284 kts 240°
2026-04-30 09:13 30.97841 122.38777 13067 ft 271 kts 241°
2026-04-30 09:14 30.96833 122.37013 12931 ft 260 kts 241°
2026-04-30 09:14 30.95853 122.35298 12781 ft 249 kts 242°
2026-04-30 09:14 30.95096 122.33529 12655 ft 241 kts 256°
2026-04-30 09:14 30.94909 122.31617 12511 ft 238 kts 275°
2026-04-30 09:15 30.95358 122.29771 12310 ft 237 kts 295°
2026-04-30 09:15 30.96334 122.28231 12072 ft 237 kts 308°
2026-04-30 09:15 30.97489 122.26841 11763 ft 239 kts 310°
2026-04-30 09:15 30.98658 122.25459 11413 ft 241 kts 310°
2026-04-30 09:16 30.99818 122.24074 11045 ft 242 kts 311°
2026-04-30 09:16 31.00862 122.22553 10725 ft 239 kts 298°
2026-04-30 09:16 31.01533 122.20793 10414 ft 238 kts 290°
2026-04-30 09:16 31.02084 122.18974 10097 ft 238 kts 290°
2026-04-30 09:17 31.02626 122.17155 9767 ft 238 kts 290°
2026-04-30 09:17 31.03171 122.15341 9480 ft 239 kts 290°
2026-04-30 09:17 31.03724 122.13511 9174 ft 239 kts 291°
2026-04-30 09:17 31.04162 122.11633 8869 ft 241 kts 279°
2026-04-30 09:18 31.04153 122.09672 8678 ft 243 kts 268°
2026-04-30 09:18 31.03807 122.07752 8214 ft 252 kts 255°
2026-04-30 09:18 31.02873 122.05941 7496 ft 273 kts 230°
2026-04-30 09:18 31.01196 122.04807 6950 ft 289 kts 197°
2026-04-30 09:19 30.99181 122.04799 6528 ft 294 kts 167°
2026-04-30 09:19 30.97259 122.05582 6150 ft 292 kts 160°
2026-04-30 09:19 30.95355 122.06374 5778 ft 289 kts 163°
2026-04-30 09:19 30.93439 122.07016 5473 ft 283 kts 167°
2026-04-30 09:20 30.91546 122.07481 5312 ft 272 kts 172°
2026-04-30 09:20 30.89730 122.07758 5159 ft 262 kts 177°
2026-04-30 09:20 30.87945 122.07837 5030 ft 251 kts 184°
2026-04-30 09:20 30.86230 122.07793 4899 ft 242 kts 182°
2026-04-30 09:21 30.84585 122.07729 4721 ft 231 kts 195°
2026-04-30 09:21 30.83219 122.06922 4581 ft 213 kts 228°
2026-04-30 09:21 30.82455 122.05552 4456 ft 195 kts 250°
2026-04-30 09:21 30.81973 122.04147 4282 ft 186 kts 253°
2026-04-30 09:22 30.81596 122.02715 3899 ft 184 kts 265°
2026-04-30 09:22 30.81870 122.01298 3504 ft 182 kts 302°
2026-04-30 09:22 30.82642 122.00139 3166 ft 181 kts 312°
2026-04-30 09:22 30.83475 121.99075 3013 ft 175 kts 313°
2026-04-30 09:23 30.84298 121.98043 3011 ft 177 kts 313°
2026-04-30 09:23 30.85149 121.96979 3010 ft 178 kts 314°
2026-04-30 09:23 30.85976 121.95944 3020 ft 178 kts 313°
2026-04-30 09:23 30.86819 121.94888 3006 ft 178 kts 313°
2026-04-30 09:24 30.87666 121.93833 3019 ft 179 kts 314°
2026-04-30 09:24 30.88515 121.92772 3002 ft 179 kts 313°
2026-04-30 09:24 30.89452 121.91874 3017 ft 180 kts 328°
2026-04-30 09:24 30.90599 121.91247 3003 ft 180 kts 339°
2026-04-30 09:25 30.91782 121.90776 3002 ft 180 kts 340°
2026-04-30 09:25 30.92970 121.90324 3010 ft 180 kts 341°
2026-04-30 09:25 30.94164 121.89875 2953 ft 180 kts 341°
2026-04-30 09:25 30.95348 121.89425 2865 ft 179 kts 341°
2026-04-30 09:26 30.96531 121.88974 2772 ft 178 kts 341°
2026-04-30 09:26 30.97711 121.88525 2634 ft 178 kts 341°
2026-04-30 09:26 30.98895 121.88076 2522 ft 179 kts 341°
2026-04-30 09:26 31.00080 121.87628 2410 ft 178 kts 341°
2026-04-30 09:27 31.01264 121.87183 2291 ft 178 kts 342°
2026-04-30 09:27 31.02440 121.86747 2139 ft 177 kts 341°
2026-04-30 09:27 31.03564 121.86317 1917 ft 162 kts 341°
2026-04-30 09:27 31.04609 121.85919 1708 ft 154 kts 342°
2026-04-30 09:28 31.05587 121.85553 1504 ft 147 kts 342°
2026-04-30 09:28 31.06544 121.85195 1286 ft 140 kts 342°
2026-04-30 09:28 31.07427 121.84859 1132 ft 130 kts 341°
2026-04-30 09:28 31.08283 121.84536 952 ft 128 kts 343°
2026-04-30 09:29 31.09123 121.84213 789 ft 127 kts 342°
2026-04-30 09:29 31.09964 121.83876 598 ft 128 kts 342°
2026-04-30 09:29 31.10797 121.83566 471 ft 126 kts 345°
2026-04-30 09:29 31.11657 121.83262 300 ft 130 kts 343°
2026-04-30 09:30 31.12507 121.82940 128 ft 128 kts 344°
2026-04-30 09:30 31.13364 121.82623 37 ft 126 kts 344°
2026-04-30 09:30 31.14081 121.82350 28 ft 76 kts 341°
2026-04-30 09:30 31.14393 121.82157 29 ft 43 kts 313°
2026-04-30 09:31 31.14570 121.81964 28 ft 31 kts 332°
2026-04-30 09:31 31.14763 121.81889 28 ft 29 kts 341°
2026-04-30 09:31 31.14947 121.81811 28 ft 28 kts 343°
2026-04-30 09:31 31.15054 121.81772 28 ft 27 kts 342°
2026-04-30 09:32 31.15185 121.81723 28 ft 26 kts 341°
2026-04-30 09:32 31.15336 121.81608 29 ft 24 kts 330°
2026-04-30 09:32 31.15485 121.81530 29 ft 20 kts 308°
2026-04-30 09:32 31.15476 121.81382 29 ft 19 kts 252°
2026-04-30 09:33 31.15431 121.81222 28 ft 22 kts 252°
2026-04-30 09:33 31.15395 121.81087 29 ft 16 kts 254°
2026-04-30 09:33 31.15361 121.80960 29 ft 17 kts 251°
2026-04-30 09:33 31.15307 121.80839 29 ft 14 kts 241°
2026-04-30 09:34 31.15284 121.80768 29 ft 5 kts 251°
2026-04-30 09:34 31.15283 121.80764 29 ft 0 kts 251°
2026-04-30 09:34 31.15283 121.80761 29 ft 0 kts 252°